Overview Statistics Trail Chart Weather Telemetry Raw packets
 

This is the latest recevied weather packets stored in our database for station/object PD0HRY-12. If no packets are shown the sender has not sent any weather packets the latest 10 day(s).

<< 16 17 18 19 >>
Time Temp. Humidity Pressure Rain* Wind** Luminosity Snow
1787779808 18.89° C 76% 1011 hPa - - - -
1787778006 19.44° C 74% 1011 hPa - - - -
1787776200 20° C 72% 1011 hPa - - - -
1787774407 20.56° C 70% 1011 hPa - - - -
1787772602 21.11° C 68% 1011 hPa - - - -
1787770807 21.67° C 65% 1011 hPa - - - -
1787769003 22.22° C 63% 1011 hPa - - - -
1787767201 23.33° C 61% 1011 hPa - - - -
1787765405 23.89° C 58% 1010 hPa - - - -
1787763603 24.44° C 57% 1011 hPa - - - -
1787761801 25° C 54% 1011 hPa - - - -
1787760004 24.44° C 55% 1011 hPa - - - -
1787758202 25.56° C 54% 1011 hPa - - - -
1787756401 26.67° C 51% 1011 hPa - - - -
1787754604 25° C 54% 1011 hPa - - - -
1787752803 25° C 54% 1011 hPa - - - -
1787751001 25° C 55% 1012 hPa - - - -
1787749204 23.89° C 58% 1012 hPa - - - -
1787747402 24.44° C 56% 1012 hPa - - - -
1787745600 23.89° C 58% 1012 hPa - - - -
1787743804 23.33° C 59% 1012 hPa - - - -

* Rain since midnight (hover to see other rain measurements)
** Current wind speed in m/s (hover to see current wind gust speed)